TimeEST,TemperatureF,Dew PointF,Humidity,Sea Level PressureIn,VisibilityMPH,Wind Direction,Wind SpeedMPH,Gust SpeedMPH,PrecipitationIn,Events,Conditions,WindDirDegrees,DateUTC
12:27 AM,42.8,41.0,93,30.04,3.0,ESE,3.5,-,N/A,,Overcast,120,2013-01-30 05:27:00
1:53 AM,43.0,42.1,97,29.98,1.5,SE,3.5,-,N/A,,Overcast,130,2013-01-30 06:53:00
2:27 AM,44.6,42.8,93,29.98,0.5,Calm,Calm,-,N/A,Fog,Fog,0,2013-01-30 07:27:00
2:53 AM,43.0,43.0,100,29.96,0.2,Calm,Calm,-,N/A,Fog,Fog,0,2013-01-30 07:53:00
3:53 AM,43.0,43.0,100,29.93,0.2,Calm,Calm,-,N/A,Fog,Fog,0,2013-01-30 08:53:00
4:53 AM,43.0,43.0,100,29.90,0.2,Calm,Calm,-,N/A,Fog,Fog,0,2013-01-30 09:53:00
5:53 AM,42.1,42.1,100,29.89,0.2,East,3.5,-,N/A,Fog,Fog,90,2013-01-30 10:53:00
6:53 AM,41.0,41.0,100,29.87,0.2,Calm,Calm,-,N/A,Fog,Fog,0,2013-01-30 11:53:00
7:53 AM,42.1,41.0,96,29.85,0.2,Calm,Calm,-,N/A,Fog,Fog,0,2013-01-30 12:53:00
8:53 AM,46.0,45.0,96,29.82,0.2,Calm,Calm,-,N/A,Fog,Fog,0,2013-01-30 13:53:00
9:05 AM,46.4,46.4,100,29.83,1.0,Calm,Calm,-,N/A,,Overcast,0,2013-01-30 14:05:00
9:24 AM,48.2,46.4,93,29.82,2.0,Calm,Calm,-,N/A,,Overcast,0,2013-01-30 14:24:00
9:44 AM,50.0,48.2,94,29.82,3.0,Calm,Calm,-,N/A,,Mostly Cloudy,0,2013-01-30 14:44:00
9:53 AM,51.1,50.0,96,29.80,3.0,SSW,4.6,-,N/A,,Mostly Cloudy,200,2013-01-30 14:53:00
10:09 AM,51.8,50.0,94,29.80,4.0,South,6.9,-,N/A,,Mostly Cloudy,180,2013-01-30 15:09:00
10:53 AM,57.0,54.0,89,29.78,8.0,SW,12.7,17.3,N/A,,Overcast,230,2013-01-30 15:53:00
11:53 AM,62.1,55.9,80,29.73,10.0,SW,12.7,19.6,N/A,,Overcast,220,2013-01-30 16:53:00
12:53 PM,64.0,57.0,78,29.67,10.0,SW,16.1,23.0,N/A,,Overcast,230,2013-01-30 17:53:00
1:53 PM,64.9,57.0,75,29.63,10.0,SW,19.6,29.9,0.00,Rain,Light Rain,230,2013-01-30 18:53:00
2:23 PM,66.2,57.2,73,29.62,10.0,SW,19.6,32.2,0.00,,Overcast,220,2013-01-30 19:23:00
2:53 PM,64.9,57.0,75,29.60,10.0,SW,20.7,29.9,0.00,,Overcast,230,2013-01-30 19:53:00
3:53 PM,66.9,57.0,70,29.59,10.0,SW,19.6,27.6,N/A,,Overcast,220,2013-01-30 20:53:00
4:53 PM,66.0,55.9,70,29.57,10.0,SW,17.3,29.9,N/A,,Overcast,220,2013-01-30 21:53:00
5:53 PM,64.9,55.9,73,29.58,10.0,WSW,17.3,24.2,0.00,,Overcast,240,2013-01-30 22:53:00
6:01 PM,64.4,55.4,73,29.60,10.0,West,12.7,21.9,0.00,Rain,Light Rain,260,2013-01-30 23:01:00
6:53 PM,60.1,55.9,86,29.56,9.0,WSW,3.5,-,0.00,Rain,Light Rain,240,2013-01-30 23:53:00
7:53 PM,57.9,55.0,90,29.53,10.0,SSW,5.8,-,0.00,Rain,Light Rain,200,2013-01-31 00:53:00
8:53 PM,57.9,55.9,93,29.48,10.0,Variable,3.5,-,N/A,,Overcast,0,2013-01-31 01:53:00
9:53 PM,61.0,55.9,83,29.42,9.0,SSW,10.4,26.5,0.01,Rain,Light Rain,200,2013-01-31 02:53:00
10:53 PM,62.1,57.0,84,29.39,10.0,SW,21.9,33.4,0.01,,Overcast,220,2013-01-31 03:53:00
11:22 PM,60.8,57.2,88,29.39,5.0,SW,18.4,24.2,0.00,Rain,Light Rain,230,2013-01-31 04:22:00
11:41 PM,59.0,57.2,94,29.36,2.5,SW,10.4,-,0.07,Rain,Heavy Rain,230,2013-01-31 04:41:00
11:45 PM,59.0,57.2,94,29.36,3.0,SW,9.2,-,0.07,Rain,Light Rain,220,2013-01-31 04:45:00
11:53 PM,59.0,57.0,93,29.33,5.0,SW,8.1,17.3,0.09,Rain,Rain,220,2013-01-31 04:53:00